Wind_Speed
10 10 10 9 9 9 9 9 9 9 10 10 10 10 12 13 14 15 15 15 16 16 16 16 17 18 19 19 20 20 21 23 24 25 26 26 26 26
11 11 11 11 11 11 11 11 11 11 11 11 11 12 12 13 14 15 16 16 18 18 17 18 18 18 19 20 21 22 22 23 24 25 26 27 27 28
12 12 12 12 12 13 13 13 13 13 13 13 13 14 14 15 15 16 17 18 18 19 19 20 20 20 21 22 23 24 24 24 25 25 26 27 27 28
14 14 14 14 14 14 14 14 14 15 15 15 15 16 17 17 17 17 18 19 20 20 21 22 23 23 23 24 24 25 26 27 26 26 27 27 28 28
16 16 16 16 16 16 16 17 17 17 17 17 18 18 19 19 19 20 20 21 22 22 23 23 25 25 25 26 27 28 28 28 28 28 29 29 30 30
18 18 18 18 19 18 19 19 20 20 20 20 20 21 21 21 22 22 23 23 24 25 25 26 27 27 28 28 29 30 30 31 31 31 31 31 32 31
20 20 20 21 21 21 22 22 23 23 23 23 23 23 23 24 24 25 25 26 27 28 28 29 29 30 30 30 31 32 32 32 32 33 33 33 33 33
22 23 23 23 24 24 24 24 25 25 25 25 25 26 26 26 27 27 27 28 28 29 30 31 32 32 33 33 33 34 34 35 35 35 34 34 34 34
25 25 26 26 26 26 26 26 26 27 28 28 28 28 29 29 29 29 30 31 31 31 32 32 33 34 35 35 35 36 36 36 37 37 36 37 36 36
27 27 27 27 27 28 28 29 29 29 30 31 31 32 32 33 33 33 33 33 34 34 35 35 35 35 35 36 36 37 37 37 38 38 39 39 39 38
29 30 30 30 30 31 31 31 31 32 33 33 34 34 35 36 36 37 37 37 37 37 38 38 38 38 38 37 37 38 38 39 39 39 39 40 40 40
32 32 32 33 33 34 34 34 34 35 35 35 36 37 37 38 40 41 41 41 41 41 41 42 41 41 40 40 40 39 40 40 40 41 41 41 41 41
35 35 35 35 35 36 36 37 37 37 38 38 39 39 40 41 41 42 43 44 44 44 44 44 44 44 44 43 42 42 42 42 43 43 43 43 44 44
36 37 37 37 37 38 38 39 40 40 41 41 41 42 42 42 43 43 44 45 45 46 46 47 47 47 47 47 46 45 45 45 45 45 46 45 45 46
38 39 39 40 41 41 42 42 42 43 43 44 44 44 45 45 46 46 47 48 48 49 49 49 50 50 50 49 49 48 48 48 47 47 47 47 47 47
41 42 42 43 44 44 44 44 44 45 46 47 48 48 48 49 50 50 51 51 51 51 51 52 52 52 52 52 51 51 51 51 50 50 49 49 48 48
44 44 45 46 46 46 47 47 48 48 49 50 51 51 51 52 52 52 53 53 53 53 52 53 54 54 54 54 54 53 53 53 53 53 52 51 50 50
47 47 48 48 48 49 50 50 51 52 53 54 54 54 54 54 54 54 54 54 54 54 54 54 55 55 55 54 54 54 54 53 54 55 55 54 53 52
49 49 50 50 51 52 53 54 54 55 55 56 56 56 56 55 55 55 55 55 55 55 55 55 56 56 56 54 53 53 53 54 54 55 55 55 54 54
50 51 51 52 52 54 55 56 56 56 56 57 57 56 55 54 54 53 53 53 53 53 53 54 54 55 55 54 52 51 52 53 54 54 54 54 54 54
51 52 52 53 54 54 55 56 56 56 56 56 55 54 53 52 51 50 51 51 51 52 52 51 51 51 51 51 50 49 50 51 52 52 52 52 52 52
52 53 53 54 55 55 56 55 55 55 54 54 53 52 51 50 49 49 49 49 49 49 48 48 48 48 48 49 48 48 49 49 49 50 50 51 51 50
53 53 54 55 55 55 55 54 53 53 52 51 50 49 48 48 47 47 47 47 48 47 46 45 45 45 45 46 47 47 48 48 47 47 47 48 48 49
Wind_Direction
334 333 331 329 327 325 323 318 309 302 297 292 286 281 275 271 267 264 265 266 265 265 264 264 258 255 254 251 250 248 249 249 248 246 248 251 252 253
328 326 323 321 320 318 317 315 311 306 301 295 289 285 281 275 269 266 268 268 267 267 266 266 263 259 257 255 254 254 254 254 254 252 251 252 253 254
321 320 318 316 314 313 312 311 309 307 304 297 292 287 285 282 277 272 271 270 269 268 269 268 268 266 262 259 257 256 257 258 258 256 256 256 256 256
313 313 312 311 311 309 308 307 306 305 302 298 294 291 288 284 281 278 273 272 270 270 270 270 270 268 266 264 261 260 259 259 259 257 256 257 258 258
311 308 307 307 305 303 302 301 301 301 300 298 295 292 290 286 282 279 277 274 274 273 272 271 271 271 270 267 264 263 262 261 261 260 259 258 258 259
310 307 305 303 301 300 298 297 297 297 297 296 292 290 288 285 283 280 278 277 276 275 274 274 272 272 272 270 267 265 264 264 264 263 263 261 259 258
306 304 303 301 300 297 295 294 294 294 293 292 291 289 287 285 283 281 280 278 277 276 275 275 274 274 273 272 269 267 266 265 265 264 263 262 260 259
303 302 301 299 298 296 294 292 291 291 290 290 290 289 287 285 284 282 281 280 279 277 276 275 274 273 273 272 271 269 267 266 265 265 263 263 262 262
304 303 301 299 296 294 293 292 292 290 290 289 289 288 287 285 284 283 282 282 281 280 278 277 275 273 272 271 270 268 267 266 265 264 263 263 262 262
304 304 302 300 297 295 293 292 291 291 289 289 289 288 287 287 286 284 283 282 281 282 280 279 277 275 273 272 271 269 268 266 265 264 263 263 262 262
303 303 302 301 298 296 295 293 292 291 290 288 288 288 288 287 286 286 285 283 282 282 281 280 278 277 275 273 271 269 268 267 265 264 264 264 263 262
301 300 299 299 298 297 295 293 291 289 289 289 288 288 288 288 287 286 285 284 283 282 281 280 278 277 275 273 271 270 268 267 266 265 264 265 264 263
300 299 298 297 297 297 295 294 292 291 290 289 289 289 288 287 286 286 285 284 283 282 280 278 277 276 275 272 270 269 268 267 266 265 265 265 265 264
299 298 297 297 296 296 296 295 294 293 292 291 290 289 288 287 286 285 284 283 283 282 280 278 277 276 274 272 270 268 267 267 267 265 265 265 264 264
298 298 297 296 296 296 295 295 294 293 292 291 290 289 289 288 287 286 284 284 283 282 280 279 278 276 274 273 271 268 267 266 266 266 266 265 265 264
297 297 296 296 296 296 296 295 295 294 293 292 291 290 289 288 287 287 285 284 283 282 281 279 278 276 275 273 271 269 267 266 265 265 266 266 265 263
296 296 295 295 295 295 295 295 295 294 294 293 292 290 289 289 288 286 285 284 283 281 280 278 277 276 275 274 271 269 267 266 265 265 265 265 264 264
296 296 295 295 295 295 295 295 294 294 294 293 292 291 289 289 288 286 285 284 283 282 281 279 278 276 274 273 272 269 267 266 265 264 264 264 263 263
297 297 297 296 296 296 296 295 295 295 294 294 293 292 290 289 288 287 285 285 284 282 281 280 278 277 275 272 270 268 267 266 265 265 264 264 263 262
298 297 297 297 297 297 297 296 296 295 295 294 293 292 290 289 289 287 286 285 284 283 282 281 280 278 276 274 269 267 267 267 267 266 265 264 263 261
298 298 298 298 298 298 298 297 297 296 295 294 294 292 290 289 288 288 287 286 286 285 284 282 281 279 277 274 271 268 266 267 267 267 266 265 263 261
300 300 299 299 299 299 298 297 296 296 295 294 294 292 290 288 288 288 288 287 287 286 285 283 280 278 277 275 272 268 266 265 265 265 266 266 265 263
301 301 301 300 299 299 298 297 296 296 295 294 293 292 290 289 289 289 288 288 287 287 285 282 280 279 277 275 273 269 266 265 265 264 264 264 264 263
Height
5853 5852 5850 5849 5848 5847 5847 5846 5846 5845 5845 5844 5844 5845 5845 5845 5846 5847 5847 5848 5849 5849 5850 5850 5851 5852 5852 5853 5853 5855 5857 5859 5861 5863 5865 5867 5868 5870
5852 5851 5849 5848 5847 5846 5845 5844 5843 5843 5842 5842 5842 5842 5842 5842 5842 5843 5843 5844 5844 5845 5846 5846 5847 5848 5848 5849 5850 5851 5852 5854 5855 5857 5859 5860 5862 5863
5850 5849 5848 5846 5845 5844 5843 5842 5841 5840 5840 5839 5838 5838 5838 5838 5838 5838 5839 5839 5840 5840 5841 5841 5842 5842 5843 5844 5845 5846 5847 5848 5849 5850 5852 5853 5855 5856
5848 5846 5845 5844 5843 5842 5841 5839 5838 5837 5837 5836 5835 5835 5834 5834 5834 5834 5834 5834 5834 5835 5835 5836 5836 5836 5837 5838 5839 5839 5840 5841 5842 5843 5845 5846 5847 5848
5845 5843 5842 5841 5840 5838 5837 5836 5835 5833 5832 5831 5831 5830 5829 5829 5828 5829 5828 5829 5829 5829 5829 5829 5830 5830 5830 5831 5831 5832 5833 5834 5835 5836 5837 5838 5839 5840
5841 5839 5838 5837 5835 5834 5832 5831 5830 5829 5827 5826 5825 5824 5824 5823 5822 5822 5822 5822 5822 5822 5822 5822 5822 5822 5823 5823 5823 5824 5824 5825 5826 5827 5828 5829 5830 5831
5836 5834 5833 5831 5830 5828 5827 5825 5824 5822 5821 5820 5819 5818 5817 5816 5815 5815 5815 5814 5814 5814 5814 5814 5814 5814 5814 5814 5814 5815 5816 5816 5817 5818 5819 5820 5821 5822
5831 5828 5827 5825 5823 5821 5820 5818 5817 5815 5814 5813 5812 5811 5810 5809 5808 5807 5806 5806 5806 5806 5805 5805 5804 5804 5804 5805 5804 5805 5805 5806 5807 5808 5809 5810 5811 5812
5824 5822 5820 5818 5816 5814 5812 5811 5809 5807 5806 5805 5804 5803 5802 5801 5799 5799 5798 5797 5796 5796 5795 5795 5794 5794 5793 5793 5793 5793 5794 5795 5796 5797 5798 5799 5800 5801
5817 5815 5813 5810 5808 5806 5804 5803 5801 5799 5797 5796 5795 5793 5792 5790 5789 5788 5787 5787 5786 5785 5783 5783 5783 5782 5782 5781 5781 5781 5782 5783 5784 5785 5786 5787 5788 5789
5810 5807 5805 5802 5799 5797 5796 5794 5792 5790 5787 5786 5784 5783 5781 5779 5778 5777 5775 5774 5774 5773 5771 5770 5770 5769 5769 5769 5769 5769 5769 5770 5771 5772 5773 5774 5775 5777
5802 5799 5796 5793 5790 5787 5785 5783 5781 5779 5777 5775 5773 5771 5769 5767 5765 5763 5762 5761 5760 5760 5758 5756 5756 5755 5756 5756 5756 5756 5756 5757 5758 5758 5759 5761 5762 5763
5792 5790 5786 5783 5780 5777 5774 5772 5769 5767 5765 5763 5761 5759 5756 5754 5751 5749 5747 5745 5744 5744 5743 5741 5740 5740 5739 5741 5742 5742 5742 5743 5744 5744 5745 5746 5747 5749
5782 5779 5776 5773 5770 5767 5763 5760 5757 5755 5752 5750 5747 5745 5742 5740 5737 5735 5732 5730 5728 5727 5726 5724 5724 5723 5723 5724 5726 5727 5727 5727 5728 5729 5730 5731 5732 5733
5771 5768 5765 5762 5758 5755 5752 5748 5744 5741 5738 5736 5733 5730 5728 5725 5722 5720 5718 5715 5713 5711 5709 5707 5706 5706 5705 5706 5707 5709 5710 5711 5712 5713 5714 5715 5716 5718
5759 5756 5753 5749 5746 5742 5739 5735 5731 5727 5724 5721 5718 5715 5712 5709 5706 5703 5701 5698 5696 5695 5692 5689 5688 5687 5687 5687 5688 5689 5691 5693 5695 5696 5697 5698 5700 5701
5747 5744 5740 5736 5733 5729 5725 5721 5717 5713 5709 5705 5702 5698 5695 5692 5688 5685 5682 5680 5677 5676 5674 5672 5669 5667 5667 5667 5668 5669 5671 5673 5675 5676 5678 5680 5683 5684
5732 5729 5725 5721 5717 5713 5710 5705 5701 5697 5692 5688 5684 5680 5677 5673 5670 5667 5663 5660 5658 5656 5654 5652 5650 5649 5649 5649 5648 5648 5651 5653 5655 5656 5658 5661 5664 5666
5718 5714 5709 5705 5701 5697 5693 5688 5684 5679 5674 5670 5666 5661 5657 5654 5650 5647 5644 5641 5638 5636 5634 5631 5629 5627 5627 5629 5631 5629 5630 5632 5634 5636 5638 5640 5644 5647
5702 5698 5694 5689 5685 5680 5676 5671 5666 5661 5656 5651 5647 5642 5638 5634 5630 5627 5624 5621 5618 5616 5614 5612 5609 5607 5606 5608 5610 5613 5611 5612 5614 5616 5618 5620 5623 5626
5687 5682 5677 5673 5668 5663 5658 5653 5648 5643 5638 5633 5628 5624 5620 5616 5612 5609 5606 5603 5600 5598 5596 5594 5591 5589 5587 5588 5590 5593 5594 5593 5594 5596 5598 5600 5603 5607
5672 5667 5661 5656 5651 5646 5640 5635 5630 5625 5620 5615 5611 5607 5603 5599 5596 5593 5589 5587 5584 5581 5578 5576 5574 5572 5571 5570 5571 5573 5575 5576 5577 5578 5580 5581 5582 5586
5655 5650 5645 5639 5633 5628 5623 5617 5613 5608 5603 5599 5594 5590 5586 5583 5579 5576 5573 5570 5567 5564 5562 5560 5558 5556 5555 5554 5554 5555 5557 5558 5560 5562 5564 5565 5565 5568